Show Low, AZ

2:17 AM MST on July 25, 2017 (GMT -0700)
Show Low Municipal

Weather History for KSOW - July, 2013

Change the Weather History Date:

Thursday, July 25, 2013

  Actual Average Record
Temperature  
Mean Temperature 71 °F -  
Max Temperature 82 °F 81 °F 93 °F (1979)
Min Temperature 60 °F 63 °F 48 °F (1973)
Cooling Degree Days 6    
Growing Degree Days 21 (Base 50)    
Moisture  
Dew Point 57 °F    
Average Humidity 65    
Maximum Humidity 88    
Minimum Humidity 39    
Precipitation  
Precipitation 0.00 in - - ()
Sea Level Pressure  
Sea Level Pressure 30.30 in    
Wind  
Wind Speed 10 mph (SSW)    
Max Wind Speed 24 mph    
Max Gust Speed 30 mph    
Visibility 10 miles    
Events Rain , Thunderstorm    
Averages and records for this station are not official NWS values.
T = Trace of Precipitation, MM = Missing Value Source: NWS Daily Summary

Daily Weather History Graph

Daily Weather History Graph

Search for Another Location

Airport or City:

Trip Planner

Search our weather history database for the weather conditions in past years. The results will help you decide how hot, cold, wet, or windy it might be!

Date:

Astronomy

Jul. 25, 2013 Rise Set
Actual Time 5:26 AM MST 7:26 PM MST
Civil Twilight 4:58 AM MST 7:54 PM MST
Nautical Twilight 4:24 AM MST 8:28 PM MST
Astronomical Twilight 3:47 AM MST 9:04 PM MST
Moon 9:22 PM MST 8:47 AM MST
Length of Visible Light 14h 56m
Length of Day
14h 00m
Waning Gibbous, 87% of the Moon is Illuminated
Jul 25
Waning Gibbous
Jul 29
Last Quarter
Aug 6
New
Aug 14
First Quarter
Aug 20
Full

Hourly Weather History & Observations

Time (MST) Temp. Heat Index Dew Point Humidity Pressure Visibility Wind Dir Wind Speed Gust Speed Precip Events Conditions
12:15 AM 64.4 °F - 57.2 °F 77% 30.26 in 10.0 mi WSW 6.9 mph - N/A   Overcast
12:35 AM 64.4 °F - 57.2 °F 77% 30.26 in 10.0 mi SW 6.9 mph - N/A Rain Light Rain
12:55 AM 64.4 °F - 57.2 °F 77% 30.26 in 10.0 mi WSW 8.1 mph - N/A Rain Light Rain
1:15 AM 62.6 °F - 57.2 °F 82% 30.26 in 10.0 mi SW 8.1 mph - N/A Rain , Thunderstorm Light Rain
1:35 AM 62.6 °F - 57.2 °F 82% 30.26 in 9.0 mi South 5.8 mph - N/A Rain , Thunderstorm Light Rain
1:55 AM 62.6 °F - 57.2 °F 82% 30.26 in 10.0 mi South 8.1 mph - N/A Thunderstorm Mostly Cloudy
2:15 AM 62.6 °F - 57.2 °F 82% 30.26 in 10.0 mi SSW 8.1 mph - N/A Thunderstorm Overcast
2:35 AM 62.6 °F - 57.2 °F 82% 30.25 in 10.0 mi WSW 6.9 mph - N/A Thunderstorm Scattered Clouds
2:55 AM 60.8 °F - 57.2 °F 88% 30.25 in 10.0 mi SW 9.2 mph - N/A   Scattered Clouds
3:55 AM 62.6 °F - 57.2 °F 82% 30.24 in 10.0 mi SSW 10.4 mph - N/A   Clear
4:15 AM 62.6 °F - 57.2 °F 82% 30.25 in 10.0 mi SSW 9.2 mph - N/A   Clear
4:35 AM 62.6 °F - 57.2 °F 82% 30.25 in 10.0 mi South 10.4 mph - N/A   Clear
4:55 AM 62.6 °F - 57.2 °F 82% 30.27 in 10.0 mi South 9.2 mph - N/A   Clear
5:35 AM 62.6 °F - 57.2 °F 82% 30.27 in 10.0 mi South 5.8 mph - N/A   Clear
6:15 AM 62.6 °F - 55.4 °F 77% 30.29 in 10.0 mi SSW 6.9 mph - N/A   Clear
6:35 AM 62.6 °F - 57.2 °F 82% 30.29 in 10.0 mi South 8.1 mph - N/A   Clear
6:55 AM 62.6 °F - 55.4 °F 77% 30.29 in 10.0 mi South 10.4 mph - N/A   Clear
7:15 AM 64.4 °F - 55.4 °F 73% 30.30 in 10.0 mi South 11.5 mph - N/A   Clear
7:35 AM 66.2 °F - 55.4 °F 68% 30.30 in 10.0 mi South 12.7 mph - N/A   Clear
7:55 AM 66.2 °F - 55.4 °F 68% 30.31 in 10.0 mi SSW 13.8 mph - N/A   Clear
8:15 AM 68.0 °F - 57.2 °F 68% 30.31 in 10.0 mi SSW 15.0 mph - N/A   Clear
8:35 AM 68.0 °F - 57.2 °F 68% 30.32 in 10.0 mi SSW 11.5 mph - N/A   Clear
8:55 AM 69.8 °F - 57.2 °F 64% 30.32 in 10.0 mi South 11.5 mph - N/A   Clear
9:15 AM 71.6 °F - 57.2 °F 60% 30.32 in 10.0 mi South 11.5 mph - N/A   Clear
9:35 AM 71.6 °F - 57.2 °F 60% 30.32 in 10.0 mi SW 9.2 mph - N/A   Partly Cloudy
9:55 AM 71.6 °F - 57.2 °F 60% 30.32 in 10.0 mi SSW 9.2 mph - N/A   Clear
10:15 AM 73.4 °F - 57.2 °F 57% 30.32 in 10.0 mi SW 10.4 mph - N/A   Clear
10:35 AM 73.4 °F - 57.2 °F 57% 30.32 in 10.0 mi SSW 9.2 mph - N/A   Clear
10:55 AM 75.2 °F - 57.2 °F 53% 30.32 in 10.0 mi SW 8.1 mph - N/A Thunderstorm Clear
11:15 AM 75.2 °F - 55.4 °F 50% 30.31 in 10.0 mi SW 8.1 mph - N/A   Clear
11:35 AM 75.2 °F - 53.6 °F 47% 30.32 in 10.0 mi WSW 6.9 mph - N/A   Clear
11:55 AM 77.0 °F - 53.6 °F 44% 30.31 in 10.0 mi NW 3.5 mph - N/A   Clear
12:15 PM 77.0 °F - 55.4 °F 47% 30.31 in 10.0 mi SW 11.5 mph - N/A Thunderstorm Clear
12:35 PM 77.0 °F - 55.4 °F 47% 30.30 in 10.0 mi WSW 9.2 mph - N/A   Clear
12:55 PM 77.0 °F - 55.4 °F 47% 30.30 in 10.0 mi WSW 9.2 mph 16.1 mph N/A   Scattered Clouds
1:15 PM 77.0 °F - 55.4 °F 47% 30.28 in 10.0 mi SW 8.1 mph - N/A Thunderstorm Partly Cloudy
1:35 PM 78.8 °F - 55.4 °F 44% 30.27 in 10.0 mi WSW 9.2 mph - N/A Thunderstorm Clear
1:55 PM 80.6 °F 80.5 °F 55.4 °F 42% 30.27 in 10.0 mi SW 9.2 mph - N/A Thunderstorm Clear
2:15 PM 82.4 °F 81.7 °F 55.4 °F 39% 30.28 in 10.0 mi SW 13.8 mph 19.6 mph N/A Thunderstorm Scattered Clouds
2:35 PM 80.6 °F 80.3 °F 53.6 °F 39% 30.27 in 10.0 mi SSE 24.2 mph 29.9 mph N/A Thunderstorm Thunderstorm
2:55 PM 77.0 °F - 55.4 °F 47% 30.27 in 10.0 mi South 20.7 mph 25.3 mph N/A Thunderstorm Mostly Cloudy
3:15 PM 75.2 °F - 57.2 °F 53% 30.27 in 10.0 mi SSE 16.1 mph - N/A Thunderstorm Mostly Cloudy
3:35 PM 75.2 °F - 57.2 °F 53% 30.27 in 10.0 mi South 17.3 mph 23.0 mph N/A Thunderstorm Partly Cloudy
3:55 PM 75.2 °F - 55.4 °F 50% 30.27 in 10.0 mi South 20.7 mph 25.3 mph N/A Thunderstorm Clear
4:15 PM 73.4 °F - 55.4 °F 53% 30.29 in 8.0 mi South 19.6 mph - N/A Thunderstorm Clear
4:35 PM 73.4 °F - 57.2 °F 57% 30.29 in 10.0 mi South 18.4 mph 24.2 mph N/A Thunderstorm Partly Cloudy
4:55 PM 71.6 °F - 57.2 °F 60% 30.30 in 9.0 mi South 15.0 mph - N/A Thunderstorm Scattered Clouds
5:15 PM 71.6 °F - 57.2 °F 60% 30.30 in 10.0 mi SSW 12.7 mph - N/A Thunderstorm Mostly Cloudy
5:35 PM 69.8 °F - 57.2 °F 64% 30.30 in 10.0 mi SSW 10.4 mph - N/A Thunderstorm Partly Cloudy
5:55 PM 71.6 °F - 55.4 °F 57% 30.30 in 10.0 mi South 13.8 mph - N/A Thunderstorm Clear
6:15 PM 71.6 °F - 55.4 °F 57% 30.31 in 10.0 mi SSW 11.5 mph - N/A   Clear
6:35 PM 69.8 °F - 55.4 °F 60% 30.31 in 10.0 mi SSW 12.7 mph - N/A   Clear
6:55 PM 69.8 °F - 55.4 °F 60% 30.31 in 10.0 mi SSW 11.5 mph - N/A Thunderstorm Clear
7:15 PM 68.0 °F - 57.2 °F 68% 30.31 in 10.0 mi SSW 9.2 mph - N/A   Clear
7:35 PM 68.0 °F - 57.2 °F 68% 30.30 in 10.0 mi South 10.4 mph - N/A Thunderstorm Clear
7:55 PM 68.0 °F - 57.2 °F 68% 30.32 in 10.0 mi SSE 13.8 mph 23.0 mph N/A   Clear
8:15 PM 68.0 °F - 57.2 °F 68% 30.33 in 10.0 mi South 10.4 mph - N/A   Clear
8:35 PM 68.0 °F - 59.0 °F 73% 30.34 in 10.0 mi South 11.5 mph - N/A   Clear
8:55 PM 68.0 °F - 59.0 °F 73% 30.33 in 10.0 mi South 13.8 mph - N/A   Clear
9:15 PM 66.2 °F - 59.0 °F 78% 30.33 in 10.0 mi SSW 11.5 mph - N/A   Clear
9:35 PM 66.2 °F - 59.0 °F 78% 30.33 in 10.0 mi SSW 10.4 mph - N/A   Clear
9:55 PM 66.2 °F - 59.0 °F 78% 30.33 in 10.0 mi SSW 9.2 mph - N/A   Clear
10:15 PM 66.2 °F - 59.0 °F 78% 30.34 in 10.0 mi SSW 10.4 mph - N/A   Clear
10:35 PM 66.2 °F - 57.2 °F 73% 30.34 in 10.0 mi South 11.5 mph - N/A   Clear
10:55 PM 66.2 °F - 57.2 °F 73% 30.33 in 10.0 mi South 11.5 mph - N/A   Clear
11:15 PM 66.2 °F - 57.2 °F 73% 30.34 in 10.0 mi South 11.5 mph - N/A   Clear
11:35 PM 66.2 °F - 57.2 °F 73% 30.34 in 10.0 mi South 11.5 mph - N/A   Clear
11:55 PM 66.2 °F - 57.2 °F 73% 30.34 in 10.0 mi South 10.4 mph - N/A   Clear